Location: ??????????
(31.2156°N, 29.9553°E)
Time: 09:03:44
(UTC+00:00)

Cosmos 1500 - Pass Details

Date: 03 March 2021
Orbit: 499 x 517 km, 82.5° (Epoch: 15 April)

Event Time Altitude Azimuth Distance (km) Brightness Sun altitude
Rises 17:08:19 0° 194° (SSW) 2,578 6.9 -15.4°
Reaches altitude 10° 17:10:27 10° 198° (SSW) 1,697 6.0 -15.9°
Maximum altitude 17:14:05 55° 277° (W) 601 3.8 -16.6°
Drops below altitude 10° 17:17:46 10° 356° (N) 1,705 5.9 -17.4°
Sets 17:19:55 0° 1° (N) 2,592 6.8 -17.9°
